SQ5OUZ-1 Weather Reports


time (UTC)temp
F
wind
direction
speed
knots
gust
knots
rain 1hr
in
rain 24hr
in
rain mn
in
humidity
%
barometer
mb
20260905223002 57 0 0.0 0.0 0.00 0.00 0.00 82 1017.8
20260905221458 57 0 0.0 0.0 0.00 0.00 0.00 81 1017.8
20260905215955 57 0 0.0 0.0 0.00 0.00 0.00 80 1017.6
20260905214447 58 0 0.0 0.0 0.00 0.00 0.00 79 1017.6
20260905212943 58 0 0.0 0.0 0.00 0.00 0.00 78 1017.4
20260905211440 58 0 0.0 0.0 0.00 0.00 0.00 78 1017.4
20260905205937 58 0 0.0 0.0 0.00 0.00 0.00 78 1017.2
20260905204434 58 0 0.0 0.0 0.00 0.00 0.00 78 1017.0
20260905202930 58 0 0.0 0.0 0.00 0.00 0.00 79 1017.1
20260905201427 58 0 0.0 0.0 0.00 0.00 0.00 78 1016.9
20260905195924 58 0 0.0 0.0 0.00 0.00 0.00 86 1017.1
20260905194417 58 0 0.0 0.0 0.00 0.00 0.00 86 1016.9
20260905192913 58 0 0.0 0.0 0.00 0.00 0.00 86 1016.9
20260905191410 58 0 0.0 0.0 0.00 0.00 0.00 85 1017.0
20260905185907 58 0 0.0 0.0 0.00 0.00 0.00 85 1017.1
20260905184404 58 0 0.0 0.0 0.00 0.00 0.00 83 1017.0
20260905182900 59 0 0.0 0.0 0.00 0.00 0.00 81 1017.3
20260905181357 60 0 0.0 0.0 0.00 0.00 0.00 70 1017.5
20260905175854 61 0 0.0 0.0 0.00 0.00 0.00 63 1017.2
20260905174351 61 0 0.0 0.0 0.00 0.00 0.00 63 1016.7
20260905172847 61 0 0.0 0.0 0.00 0.00 0.00 63 1016.6
20260905171343 62 0 0.0 0.0 0.00 0.00 0.00 61 1016.3
20260905165012 62 0 0.0 0.0 0.00 0.00 0.00 57 1016.5
20260905163509 64 0 0.0 0.0 0.00 0.00 0.00 55 1016.4
20260905162005 65 0 0.0 0.0 0.00 0.00 0.00 52 1016.2
20260905160501 68 0 0.0 0.0 0.00 0.00 0.00 45 1016.5
20260905154958 69 0 0.0 0.0 0.00 0.00 0.00 44 1015.8
20260905151947 69 0 0.0 0.0 0.00 0.00 0.00 42 1015.5
20260905150444 70 0 0.0 0.0 0.00 0.00 0.00 40 1015.4
20260905144941 70 0 0.0 0.0 0.00 0.00 0.00 39 1015.3
20260905143438 70 0 0.0 0.0 0.00 0.00 0.00 38 1015.4
20260905141934 70 0 0.0 0.0 0.00 0.00 0.00 38 1015.4
20260905140431 70 0 0.0 0.0 0.00 0.00 0.00 38 1015.2
20260905134928 70 0 0.0 0.0 0.00 0.00 0.00 39 1015.2
20260905133425 70 0 0.0 0.0 0.00 0.00 0.00 38 1015.2
20260905131921 72 0 0.0 0.0 0.00 0.00 0.00 39 1015.1
20260905130418 72 0 0.0 0.0 0.00 0.00 0.00 39 1015.1
20260905124915 71 0 0.0 0.0 0.00 0.00 0.00 42 1015.1
20260905123406 70 0 0.0 0.0 0.00 0.00 0.00 43 1015.2
20260905121903 71 0 0.0 0.0 0.00 0.00 0.00 41 1015.0
20260905120400 70 0 0.0 0.0 0.00 0.00 0.00 42 1015.0
20260905114856 69 0 0.0 0.0 0.00 0.00 0.00 47 1015.1
20260905113353 70 0 0.0 0.0 0.00 0.00 0.00 46 1015.1
20260905111850 73 0 0.0 0.0 0.00 0.00 0.00 42 1014.9
20260905110347 75 0 0.0 0.0 0.00 0.00 0.00 40 1014.7
20260905104843 73 0 0.0 0.0 0.00 0.00 0.00 43 1014.7
20260905103340 75 0 0.0 0.0 0.00 0.00 0.00 40 1014.6
20260905100328 77 0 0.0 0.0 0.00 0.00 0.00 41 1014.4
20260905094825 73 0 0.0 0.0 0.00 0.00 0.00 46 1014.4
20260905093322 70 0 0.0 0.0 0.00 0.00 0.00 51 1014.5
20260905091819 72 0 0.0 0.0 0.00 0.00 0.00 50 1014.3
20260905090315 71 0 0.0 0.0 0.00 0.00 0.00 52 1014.2
20260905084811 72 0 0.0 0.0 0.00 0.00 0.00 51 1014.1
20260905083308 75 0 0.0 0.0 0.00 0.00 0.00 46 1014.3
20260905081805 74 0 0.0 0.0 0.00 0.00 0.00 47 1014.2
20260905080300 74 0 0.0 0.0 0.00 0.00 0.00 48 1014.2
20260905074757 72 0 0.0 0.0 0.00 0.00 0.00 53 1014.1
20260905073254 72 0 0.0 0.0 0.00 0.00 0.00 56 1014.0
20260905071751 67 0 0.0 0.0 0.00 0.00 0.00 64 1013.8
20260905070246 65 0 0.0 0.0 0.00 0.00 0.00 70 1013.6
20260905064743 64 0 0.0 0.0 0.00 0.00 0.00 73 1013.6
20260905063240 64 0 0.0 0.0 0.00 0.00 0.00 75 1013.4
20260905061735 63 0 0.0 0.0 0.00 0.00 0.00 76 1013.2
20260905060232 63 0 0.0 0.0 0.00 0.00 0.00 77 1012.9
20260905054728 63 0 0.0 0.0 0.00 0.00 0.00 79 1013.1
20260905053225 63 0 0.0 0.0 0.00 0.00 0.00 81 1012.8
20260905051721 62 0 0.0 0.0 0.00 0.00 0.00 83 1012.7
20260905050217 62 0 0.0 0.0 0.00 0.00 0.00 85 1012.5
20260905044714 62 0 0.0 0.0 0.00 0.00 0.00 85 1012.1
20260905043211 62 0 0.0 0.0 0.00 0.00 0.00 87 1011.9
20260905041708 61 0 0.0 0.0 0.00 0.00 0.00 88 1011.6
20260905040204 61 0 0.0 0.0 0.00 0.00 0.00 89 1011.5
20260905034701 61 0 0.0 0.0 0.00 0.00 0.00 91 1011.1
20260905033158 61 0 0.0 0.0 0.00 0.00 0.00 91 1011.2
20260905031655 61 0 0.0 0.0 0.00 0.00 0.00 92 1011.0
20260905030151 61 0 0.0 0.0 0.00 0.00 0.00 92 1010.9
20260905024648 61 0 0.0 0.0 0.00 0.00 0.00 92 1010.7
20260905023139 62 0 0.0 0.0 0.00 0.00 0.00 92 1010.7
20260905021636 62 0 0.0 0.0 0.00 0.00 0.00 92 1010.8
20260905020132 62 0 0.0 0.0 0.00 0.00 0.00 91 1009.9
20260905014628 62 0 0.0 0.0 0.00 0.00 0.00 91 1010.4
20260905013125 62 0 0.0 0.0 0.00 0.00 0.00 90 1010.4
20260905011622 62 0 0.0 0.0 0.00 0.00 0.00 88 1009.8
20260905010118 62 0 0.0 0.0 0.00 0.00 0.00 88 1010.1
20260905004615 63 0 0.0 0.0 0.00 0.00 0.00 88 1009.7
20260905003112 63 0 0.0 0.0 0.00 0.00 0.00 88 1009.5
20260905001608 64 0 0.0 0.0 0.00 0.00 0.00 89 1009.4
20260905000105 65 0 0.0 0.0 0.00 0.00 0.00 86 1009.4
20260904234602 65 0 0.0 0.0 0.00 0.00 0.00 87 1008.6
20260904233059 65 0 0.0 0.0 0.00 0.00 0.00 89 1008.4
20260904231556 65 0 0.0 0.0 0.00 0.00 0.00 90 1008.5
20260904230052 65 0 0.0 0.0 0.00 0.00 0.00 88 1008.4
20260904224549 65 0 0.0 0.0 0.00 0.00 0.00 89 1008.2